This is the latest recevied weather packets stored in our database for station/object DB0FN-10. If no packets are shown the sender has not sent any weather packets the latest 10 day(s).
| Time | Temp. | Humidity | Pressure | Rain* | Wind** | Luminosity | Snow |
|---|---|---|---|---|---|---|---|
| 1777634165 | 20° C | 28% | 1028.6 hPa | - | - | - | - |
| 1777633265 | 20° C | 30% | 1028.5 hPa | - | - | - | - |
| 1777632365 | 19.44° C | 33% | 1028.7 hPa | - | - | - | - |
| 1777631465 | 19.44° C | 31% | 1028.7 hPa | - | - | - | - |
| 1777630565 | 19.44° C | 31% | 1028.8 hPa | - | - | - | - |
| 1777629663 | 19.44° C | 30% | 1028.8 hPa | - | - | - | - |
| 1777628763 | 19.44° C | 30% | 1028.7 hPa | - | - | - | - |
| 1777627863 | 18.33° C | 35% | 1028.8 hPa | - | - | - | - |
| 1777626963 | 17.22° C | 34% | 1028.8 hPa | - | - | - | - |
| 1777626063 | 17.22° C | 31% | 1028.7 hPa | - | - | - | - |
| 1777625163 | 17.22° C | 30% | 1028.6 hPa | - | - | - | - |
| 1777624263 | 16.67° C | 29% | 1028.6 hPa | - | - | - | - |
| 1777623363 | 16.67° C | 31% | 1028.5 hPa | - | - | - | - |
| 1777622463 | 16.11° C | 30% | 1028.5 hPa | - | - | - | - |
| 1777621563 | 16.11° C | 31% | 1028.5 hPa | - | - | - | - |
| 1777620663 | 15.56° C | 29% | 1028.5 hPa | - | - | - | - |
| 1777619763 | 15.56° C | 29% | 1028.4 hPa | - | - | - | - |
| 1777618863 | 14.44° C | 30% | 1028.4 hPa | - | - | - | - |
| 1777617963 | 13.33° C | 30% | 1028.2 hPa | - | - | - | - |
| 1777617062 | 13.33° C | 32% | 1028.1 hPa | - | - | - | - |
| 1777616162 | 12.78° C | 30% | 1027.9 hPa | - | - | - | - |
| 1777615262 | 12.78° C | 30% | 1027.8 hPa | - | - | - | - |
| 1777614362 | 12.22° C | 30% | 1027.8 hPa | - | - | - | - |
| 1777613462 | 12.78° C | 29% | 1027.7 hPa | - | - | - | - |
| 1777612562 | 12.78° C | 29% | 1027.5 hPa | - | - | - | - |
* Rain since midnight (hover to see other rain measurements)
** Current wind speed in m/s (hover to see current wind gust speed)